This demonstration page uses our WeatherBlox Daily Observations layout. Learn more.

Left ArrowRight Arrow

Hourly Observations for November 14, 2020

Temp ( °F °C ) Dew Point ( °F °C ) Humidity (%) Winds ( mph kmh ) Pressure ( in mb ) Visibility ( mi km ) Precip ( " mm )
12:53 am 00:53 Clear 25 -3.9 22 -5.6 88 88 Calm 30.22 1023 10 16 0.00 0.00
1:53 am 01:53 Clear 24 -4.4 21 -6.1 88 88 Calm 30.24 1024 10 16 0.00 0.00
2:53 am 02:53 Clear 25 -3.9 23 -5 92 92 Calm 30.24 1024 7 11 0.00 0.00
3:53 am 03:53 Clear 23 -5 21 -6.1 92 92 Calm 30.24 1024 8 13 0.00 0.00
4:53 am 04:53 Clear 23 -5 20 -6.7 88 88 Calm 30.23 1024 8 13 0.00 0.00
5:53 am 05:53 Clear 24 -4.4 21 -6.1 88 88 Calm 30.24 1024 10 16 0.00 0.00
6:53 am 06:53 Clear 25 -3.9 23 -5 92 92 Calm 30.24 1024 9 14 0.00 0.00
7:53 am 07:53 Sunny with Mist and Fog 28 -2.2 27 -2.8 96 96 Calm 30.24 1024 6 10 0.00 0.00
8:53 am 08:53 Sunny 35 1.7 32 0 89 89 ESE 3 6 30.24 1024 7 11 0.00 0.00
9:53 am 09:53 Sunny 42 5.6 33 0.6 71 71 SSE 7 11 30.22 1023 10 16 0.00 0.00
10:53 am 10:53 Sunny 46 7.8 33 0.6 61 61 VRB 5 7 30.20 1023 10 16 0.00 0.00
11:53 am 11:53 Sunny 47 8.3 33 0.6 59 59 VRB 7 11 30.17 1022 10 16 0.00 0.00
12:53 pm 12:53 Sunny 50 10 35 1.7 57 57 SSE 5 7 30.16 1021 10 16 0.00 0.00
1:53 pm 13:53 Mostly Cloudy 51 10.6 35 1.7 54 54 SSE 6 9 30.13 1020 10 16 0.00 0.00
2:53 pm 14:53 Mostly Cloudy 53 11.7 36 2.2 52 52 S 7 11 30.08 1019 10 16 0.00 0.00
3:53 pm 15:53 Cloudy 54 12.2 37 2.8 53 53 SE 7 11 30.06 1018 10 16 0.00 0.00
4:53 pm 16:53 Mostly Cloudy 54 12.2 38 3.3 55 55 Calm 30.04 1017 10 16 0.00 0.00
5:53 pm 17:53 Cloudy 54 12.2 36 2.2 51 51 ESE 5 7 30.02 1017 10 16 0.00 0.00
6:53 pm 18:53 Cloudy with Light Rain 53 11.7 39 3.9 59 59 ESE 6 9 30.01 1016 10 16 0.00 0.00
7:53 pm 19:53 Cloudy 53 11.7 38 3.3 57 57 VRB 5 7 29.98 1015 10 16 0.00 0.00
8:53 pm 20:53 Mostly Cloudy 54 12.2 37 2.8 53 53 VRB 5 7 29.95 1014 10 16 0.00 0.00
9:53 pm 21:53 Cloudy 54 12.2 38 3.3 55 55 VRB 5 7 29.92 1013 10 16 0.00 0.00
10:53 pm 22:53 Mostly Cloudy 56 13.3 37 2.8 49 49 SSE 8 13 29.87 1011 10 16 0.00 0.00
11:53 pm 23:53 Cloudy 57 13.9 37 2.8 47 47 SSE 8 13 29.82 1010 10 16 0.00 0.00

Powered by AerisWeather